Location: Goettingen
(51.5300°N, 9.9433°E)
Time: 17:16:32
(UTC+02:00)

ISS - Pass Details

Date: 16 May 2026
Orbit: 414 x 424 km, 51.6° (Epoch: 13 May)

Event Time Altitude Azimuth Distance (km) Brightness Sun altitude
Rises 00:58:01 0° 283° (WNW) 2,356 0.3 -19.3°
Reaches altitude 10° 01:00:17 10° 271° (W) 1,492 -0.9 -19.3°
Enters shadow 01:01:10 16° 262° (W) 1,196 -1.5 -19.3°
